Weather History for Rogers, AR

Change the Weather History Date:

Tuesday, May 8, 2012

  Actual Average Record
Temperature  
Mean Temperature 62 °F -  
Max Temperature 70 °F 71 °F 88 °F (2011)
Min Temperature 55 °F 52 °F 42 °F (1999)
Degree Days  
Heating Degree Days 2    
Growing Degree Days 12 (Base 50)    
Moisture  
Dew Point 52 °F    
Average Humidity 70    
Maximum Humidity 97    
Minimum Humidity 44    
Precipitation  
Precipitation 0.00 in - - ()
Sea Level Pressure  
Sea Level Pressure 30.03 in    
Wind  
Wind Speed 5 mph (North)    
Max Wind Speed 10 mph    
Max Gust Speed 20 mph    
Visibility 10 miles    
Events      
Averages and records for this station are not official NWS values.
T = Trace of Precipitation, MM = Missing Value Source: NWS Daily Summary

Daily Weather History Graph

Daily Weather History Graph

Search for Another Location

Airport:

Trip Planner

Search our weather history database for the weather conditions in past years. The results will help you decide how hot, cold, wet, or windy it might be!

Date:

Astronomy

May. 08, 2012 Rise Set
Actual Time 6:15 AM CDT 8:10 PM CDT
Civil Twilight 5:47 AM CDT 8:39 PM CDT
Nautical Twilight 5:13 AM CDT 9:13 PM CDT
Astronomical Twilight 4:36 AM CDT 9:50 PM CDT
Moon 11:19 PM CDT (5/8) 8:26 AM CDT (5/8)
Length of Visible Light 14h 51m
Length of Day
13h 55m
Waning Gibbous, 90% of the Moon is Illuminated
May 8
Waning Gibbous
May 12
Last Quarter
May 20
New
May 28
First Quarter
Jun 4
Full

Hourly Weather History & Observations

Time (CDT) Temp. Dew Point Humidity Pressure Visibility Wind Dir Wind Speed Gust Speed Precip Events Conditions
12:57 AM 59.0 °F 57.0 °F 93% 30.00 in 10.0 mi North 5.8 mph - N/A   Clear
1:57 AM 57.9 °F 57.0 °F 97% 30.00 in 10.0 mi NNW 3.5 mph - N/A   Clear
2:57 AM 57.0 °F 55.9 °F 96% 30.01 in 6.0 mi NNW 3.5 mph - N/A   Scattered Clouds
4:57 AM 57.0 °F 54.0 °F 89% 30.02 in 10.0 mi North 4.6 mph - N/A   Partly Cloudy
5:57 AM 55.9 °F 54.0 °F 93% 30.04 in 10.0 mi NNW 4.6 mph - N/A   Clear
6:57 AM 55.0 °F 53.1 °F 93% 30.04 in 10.0 mi NNE 5.8 mph - N/A   Clear
8:57 AM 59.0 °F 52.0 °F 78% 30.07 in 10.0 mi NNE 4.6 mph - N/A   Clear
9:57 AM 62.1 °F 52.0 °F 70% 30.05 in 10.0 mi ENE 6.9 mph - N/A   Mostly Cloudy
10:57 AM 64.9 °F 52.0 °F 63% 30.09 in 10.0 mi North 4.6 mph - N/A   Mostly Cloudy
11:57 AM 64.9 °F 48.9 °F 56% 30.09 in 10.0 mi NNE 5.8 mph - N/A   Overcast
12:57 PM 66.9 °F 48.0 °F 51% 30.07 in 10.0 mi NE 5.8 mph - N/A   Partly Cloudy
1:57 PM 68.0 °F 48.0 °F 49% 30.05 in 10.0 mi NNE 8.1 mph - N/A   Clear
2:57 PM 70.0 °F 46.9 °F 44% 30.02 in 10.0 mi NE 5.8 mph 19.6 mph N/A   Clear
3:57 PM 70.0 °F 50.0 °F 49% 29.99 in 10.0 mi NNE 10.4 mph - N/A   Clear
4:57 PM 70.0 °F 48.9 °F 47% 30.00 in 10.0 mi North 8.1 mph - N/A   Partly Cloudy
5:57 PM 68.0 °F 50.0 °F 52% 30.00 in 10.0 mi North 4.6 mph - N/A   Clear
6:57 PM 66.0 °F 48.9 °F 54% 30.00 in 10.0 mi NNW 4.6 mph - N/A   Clear
7:57 PM 64.0 °F 53.1 °F 67% 30.02 in 10.0 mi NW 3.5 mph - N/A   Clear
8:57 PM 62.1 °F 50.0 °F 65% 30.02 in 10.0 mi Calm Calm - N/A   Clear
9:57 PM 57.9 °F 53.1 °F 84% 30.04 in 10.0 mi Calm Calm - N/A   Clear
10:57 PM 57.0 °F 52.0 °F 83% 30.05 in 10.0 mi Calm Calm - N/A   Clear